Temperature
17 18 18 18 19 18 17 16 16 17 17 17 17 17 17 18 18 18 18 18 18 18 18 17 17 17 17 16 16 16 15 15 15 14 14 14 14 13 13 13 13 13 12 12
17 18 18 18 18 18 18 18 17 17 17 17 17 17 17 17 17 17 17 17 17 17 17 17 17 17 16 16 16 16 15 15 14 14 14 13 13 13 13 13 12 12 12 12
15 16 17 16 17 18 17 17 17 17 16 16 16 16 16 17 17 17 17 17 17 17 17 17 17 16 16 16 16 15 15 14 14 14 13 13 13 13 12 12 12 12 12 12
13 15 15 16 17 18 17 17 17 16 16 16 16 17 17 17 17 17 17 17 17 17 16 16 16 16 16 16 15 15 14 14 14 13 13 12 12 12 12 12 12 11 11 11
12 14 14 16 17 17 17 16 16 16 16 16 16 16 16 17 17 17 17 17 17 16 16 16 16 15 15 15 14 14 14 14 13 13 12 12 12 12 11 11 11 11 11 11
12 14 14 15 17 17 16 15 16 16 15 15 15 13 14 16 16 16 16 16 16 16 16 15 15 15 15 14 14 14 13 13 13 12 12 12 12 11 11 11 11 10 10 10
12 13 13 15 16 17 15 15 16 16 16 16 15 15 16 16 16 16 16 16 15 15 15 15 14 14 14 14 13 13 13 12 12 12 12 12 11 11 11 10 10 10 10 10
11 12 13 15 16 15 14 16 16 16 16 16 16 16 16 15 15 15 15 15 15 15 14 14 14 14 13 13 13 12 12 12 12 11 11 11 11 11 10 10 10 10 9 9
12 13 14 15 16 16 16 16 16 16 16 16 16 15 15 15 15 15 14 14 14 14 14 13 13 13 13 13 12 12 12 11 11 11 11 10 10 10 10 10 9 9 9 9
12 12 13 15 15 15 16 16 16 16 16 16 15 15 14 14 14 14 14 13 13 13 13 13 12 12 12 12 12 11 11 11 11 10 10 10 10 10 9 9 9 9 8 8
11 12 13 14 15 15 15 15 15 15 15 15 15 14 14 13 13 13 13 13 13 12 12 12 12 11 11 11 11 11 10 10 10 10 10 9 9 9 9 9 9 8 8 8
11 12 12 13 14 14 14 14 14 14 14 14 14 14 13 13 13 13 13 12 12 12 12 11 11 11 11 10 10 10 10 10 9 9 9 9 9 8 8 8 8 8 8 7
13 13 13 13 14 14 14 14 14 13 13 13 13 13 13 13 12 12 12 12 12 11 11 11 11 10 10 10 10 10 10 9 9 9 8 8 8 8 8 7 7 7 7 7
13 13 12 13 13 13 13 13 13 13 12 12 13 12 12 12 12 12 12 11 11 11 11 10 10 10 10 9 9 9 9 9 8 8 8 8 7 7 7 7 7 6 6 6
12 12 12 12 12 12 12 12 12 12 12 12 12 12 12 12 11 11 11 11 10 10 10 10 10 9 9 9 9 9 8 8 8 8 7 7 7 6 6 6 6 6 6 6
11 11 11 11 11 11 11 11 11 11 11 11 11 11 11 11 11 11 10 10 10 10 9 9 9 9 8 8 8 8 8 8 7 7 7 7 6 6 6 5 5 5 5 5
11 10 10 10 10 10 11 11 11 11 11 11 11 11 10 10 10 10 10 9 9 9 9 9 8 8 8 8 7 7 7 7 7 6 6 6 6 5 5 5 5 5 5 4
10 10 10 10 10 10 10 10 10 10 10 10 10 10 10 10 9 9 9 9 8 8 8 8 8 7 7 7 7 7 6 6 6 6 6 5 5 5 5 4 4 4 4 4
10 10 10 10 10 10 10 10 10 10 10 9 9 9 9 9 9 8 8 8 8 8 7 7 7 7 7 6 6 6 6 5 5 5 5 5 4 4 4 4 4 3 3 3
9 9 9 9 9 9 9 9 9 9 9 9 9 9 9 8 8 8 7 7 7 7 7 6 6 6 6 6 5 5 5 5 5 5 4 4 4 4 3 3 3 3 3 3
9 9 9 9 9 9 9 9 9 8 8 8 8 8 8 7 7 7 7 7 6 6 6 6 6 5 5 5 5 5 4 4 4 4 4 3 3 3 3 3 2 2 2 2
8 8 8 8 8 8 8 8 8 8 8 7 7 7 7 7 7 6 6 6 6 6 5 5 5 5 5 4 4 4 4 4 3 3 3 3 2 2 2 2 2 2 2 1
8 8 8 8 8 7 7 7 7 7 7 7 7 7 7 6 6 6 6 5 5 5 5 4 4 4 4 4 3 3 3 3 3 3 2 2 2 2 1 1 1 1 1 1
7 7 7 7 7 7 7 7 7 7 7 6 6 6 6 6 5 5 5 5 5 4 4 4 4 4 3 3 3 3 3 3 2 2 2 1 1 1 1 1 1 1 0 0
7 7 7 7 6 6 6 6 6 6 6 6 5 5 5 5 5 5 4 4 4 4 4 3 3 3 3 3 2 2 2 2 2 1 1 1 1 1 0 0 0 0 -0 -0
6 6 6 6 6 6 6 5 5 5 5 5 5 5 4 4 4 4 4 4 3 3 3 3 3 2 2 2 2 2 2 1 1 1 1 0 0 0 0 -0 -0 -0 -0 -1
6 6 6 5 5 5 5 5 5 5 4 4 4 4 4 3 3 3 3 3 3 2 2 2 2 2 2 1 1 1 1 1 0 0 0 -0 -0 -0 -0 -1 -1 -1 -1 -1
Wind_Speed
7 6 5 5 6 6 6 8 8 8 8 8 6 6 6 5 5 5 4 4 4 4 5 5 6 6 6 6 6 6 6 6 6 6 5 5 5 5 5 5 5 5 5 4
4 4 4 5 7 7 7 6 7 6 7 6 3 3 3 4 5 5 4 4 5 5 5 5 6 6 6 6 6 6 7 7 5 5 5 5 5 5 5 4 4 4 4 4
4 4 3 5 6 6 5 3 5 7 7 4 2 3 5 5 5 5 5 5 5 5 6 6 6 6 7 7 5 6 6 6 6 6 5 5 5 5 5 5 4 4 4 4
2 1 6 7 5 5 4 3 3 4 4 4 5 4 3 4 5 4 4 4 4 3 3 4 4 4 5 5 4 5 5 5 5 5 5 4 4 4 4 4 4 4 4 4
2 3 6 6 4 2 4 3 2 3 2 2 3 3 2 1 3 5 5 4 3 3 3 2 3 4 4 4 4 4 4 5 5 5 5 5 5 4 4 4 4 4 4 4
3 3 6 6 5 3 3 3 4 2 4 4 4 2 4 3 1 2 2 2 2 1 1 2 2 4 5 5 4 5 5 5 4 5 6 6 6 5 4 4 4 4 4 4
4 5 6 6 4 2 3 6 3 2 4 4 4 5 4 2 2 2 3 2 2 3 2 2 3 4 5 4 5 5 3 3 3 4 5 5 5 4 4 4 3 3 3 3
4 5 7 4 1 3 5 2 1 1 3 4 3 2 3 3 3 3 2 2 2 3 1 1 3 4 4 4 4 2 3 3 3 3 3 3 4 3 4 5 5 4 3 2
6 6 5 1 2 2 3 2 1 1 2 4 4 3 3 3 3 3 3 2 2 2 1 1 2 4 4 3 3 3 3 3 2 2 2 3 4 4 3 4 4 4 4 4
2 4 4 3 1 1 1 2 2 3 3 4 4 3 3 3 3 3 2 2 2 3 2 0 0 2 3 3 3 4 3 2 2 3 2 2 2 3 3 4 4 4 4 4
3 5 3 3 3 2 1 1 1 1 2 4 5 4 3 3 3 3 3 2 2 3 2 1 1 1 1 3 4 4 3 3 2 2 3 3 2 2 3 3 5 5 5 5
7 6 4 5 4 3 2 2 2 1 1 1 3 4 4 4 4 3 3 2 2 3 3 2 2 1 1 2 4 5 3 2 2 2 2 2 2 1 1 0 2 3 4 4
6 5 4 4 3 2 2 2 2 2 2 2 2 3 3 3 3 3 3 3 3 4 3 3 3 2 2 2 4 4 4 3 2 2 3 3 3 3 1 2 1 1 2 4
2 1 3 4 4 3 3 3 2 1 2 2 2 2 3 3 3 4 4 4 4 3 3 3 3 3 3 2 3 3 3 3 3 3 3 3 3 3 3 2 1 1 1 2
3 3 5 4 3 2 2 2 1 1 2 3 2 2 3 4 4 4 3 3 3 2 2 3 2 2 2 2 3 3 3 2 2 2 2 2 2 2 2 2 2 2 1 1
3 2 2 2 2 2 1 2 2 3 3 3 3 3 3 4 3 3 3 3 4 3 3 3 3 2 2 3 3 2 2 3 3 3 2 2 2 2 2 2 2 2 2 2
2 3 3 3 3 3 3 4 5 4 4 3 4 3 3 3 2 2 2 2 3 3 3 3 3 2 2 3 3 2 2 2 3 2 2 3 3 3 3 2 2 2 2 2
5 5 5 5 4 4 3 3 3 3 3 4 3 2 3 4 4 3 3 2 2 1 1 2 2 2 2 2 2 2 2 2 2 2 2 2 2 2 2 2 3 2 2 2
4 4 4 4 4 4 4 3 3 3 3 2 3 3 3 3 3 3 3 3 3 1 2 2 3 2 2 2 3 2 2 2 2 1 1 2 2 2 2 2 2 2 2 2
4 4 4 4 2 2 2 2 2 2 2 3 3 3 2 2 2 3 3 3 3 3 3 2 2 2 2 2 3 2 3 3 3 2 1 1 2 2 2 2 2 2 2 2
3 3 3 2 2 1 2 2 2 2 2 2 3 4 3 3 3 3 3 2 2 2 2 3 2 2 2 2 2 2 2 2 2 2 2 2 2 1 2 2 2 2 2 2
2 2 2 2 2 1 1 1 2 2 1 1 2 2 2 2 2 2 2 3 3 3 2 2 2 2 3 2 2 2 2 2 2 2 2 2 2 2 2 2 2 2 2 2
2 2 2 2 2 2 1 1 2 2 2 2 2 2 2 3 3 3 2 2 2 3 2 2 3 3 3 2 2 2 2 2 2 2 2 2 2 2 2 2 2 3 3 3
1 1 2 2 2 2 1 1 1 1 2 2 2 3 3 2 1 1 2 3 3 2 1 3 3 3 2 2 2 2 2 2 2 2 2 2 2 2 2 3 3 3 3 3
1 1 1 1 2 2 2 2 1 1 1 1 0 0 1 2 2 1 1 2 3 2 1 2 3 2 2 2 2 2 2 3 3 2 2 2 2 2 3 3 3 3 3 3
1 1 1 2 2 2 2 2 2 1 1 1 0 0 0 1 1 1 1 1 1 1 0 0 1 1 1 2 1 2 2 2 2 2 2 3 3 3 3 3 4 4 4 4
1 0 0 0 0 1 2 2 2 2 2 2 1 1 1 1 1 2 2 1 1 1 0 0 0 1 1 1 1 1 1 1 2 2 2 3 3 3 4 4 3 3 4 4
Wind_Direction
230 239 230 236 242 230 217 202 203 231 228 238 229 212 203 187 167 152 152 154 160 177 191 193 193 194 192 191 187 177 173 180 192 194 187 182 180 186 186 181 182 179 171 174
277 266 265 264 257 238 233 225 218 226 251 250 228 188 180 178 166 164 176 183 181 183 190 194 197 198 195 195 188 175 178 188 185 181 182 185 189 187 181 179 177 167 172 177
265 287 324 266 239 224 225 222 196 218 234 220 179 181 185 178 167 169 184 189 188 193 200 205 202 194 194 196 185 177 186 188 184 182 184 192 189 177 180 180 170 171 173 173
224 347 239 248 257 216 193 234 221 195 196 185 187 189 175 164 166 180 192 199 208 209 211 211 200 191 185 175 167 176 186 192 190 184 187 186 176 180 185 174 172 184 186 181
168 223 268 284 282 222 190 256 261 197 192 162 142 78 1 251 184 188 195 190 196 200 196 196 194 181 158 151 156 174 188 192 188 179 179 178 181 191 194 181 182 193 189 183
167 199 239 250 266 252 129 253 285 185 181 170 121 116 253 254 193 157 159 160 156 148 134 158 186 151 143 158 169 196 207 202 190 179 176 180 189 191 193 186 188 187 188 193
194 223 258 265 289 56 173 237 267 184 174 161 173 203 210 177 147 141 131 130 124 116 130 186 161 137 147 167 198 211 200 184 178 180 181 180 184 184 177 176 173 177 183 196
179 210 248 272 103 169 222 236 219 195 181 165 172 156 141 144 149 139 121 114 114 117 127 179 154 146 154 189 208 180 160 165 175 179 178 169 166 174 169 168 171 179 181 191
193 217 249 263 199 219 169 178 221 200 201 153 146 163 173 174 168 168 159 152 135 128 106 49 158 157 170 199 171 145 143 158 159 157 156 159 165 170 169 171 175 185 184 196
227 263 283 301 298 315 179 190 228 213 179 154 156 168 176 180 186 183 178 163 137 126 120 31 227 164 178 178 153 141 149 159 151 146 143 140 155 163 171 181 184 187 189 197
255 268 294 289 257 235 229 196 181 176 175 169 156 170 181 187 197 195 187 176 150 152 164 193 199 182 170 154 143 144 156 166 165 163 163 160 152 161 178 196 195 194 201 197
233 237 216 247 256 254 236 231 211 192 215 172 167 179 191 194 197 194 186 174 169 175 176 184 174 183 187 162 154 153 160 172 175 170 169 166 154 98 22 177 185 180 189 191
226 240 234 247 256 256 219 225 237 233 216 213 207 188 184 193 192 184 177 174 186 195 192 184 183 195 213 185 161 162 170 179 180 175 175 179 176 174 182 3 49 154 175 181
224 227 274 269 262 255 231 220 219 262 264 232 213 199 180 176 177 182 193 200 190 186 189 184 183 210 226 194 167 168 173 183 178 182 180 184 189 189 181 177 193 260 244 206
253 232 233 246 260 254 230 196 172 242 264 268 227 199 184 181 193 201 201 184 161 162 185 172 176 224 230 177 171 178 179 181 172 164 162 168 170 169 173 177 186 199 212 253
257 266 235 222 239 243 223 188 201 227 241 245 237 222 205 193 196 197 186 167 164 187 196 183 195 216 189 157 155 161 176 178 162 155 158 162 167 168 174 184 197 204 211 219
211 244 251 246 249 250 237 225 222 226 233 238 229 208 179 159 164 188 198 185 183 192 186 181 201 200 168 160 155 161 161 174 165 158 170 180 182 186 191 193 199 220 233 227
217 225 226 224 230 237 241 237 233 229 239 239 219 176 169 178 191 199 191 163 145 140 185 189 175 138 135 144 145 143 149 153 158 170 179 181 183 191 192 193 201 216 243 235
238 242 247 242 229 215 217 224 239 242 241 212 179 183 191 192 189 185 165 149 148 177 247 207 163 136 143 158 143 144 149 151 154 163 174 183 182 180 189 199 208 214 221 215
243 244 243 247 232 203 211 222 237 244 228 184 163 158 159 176 170 163 154 169 201 208 206 190 163 160 174 181 157 149 156 164 169 174 171 171 178 191 204 220 226 226 227 224
241 243 234 223 225 226 215 211 218 229 224 180 169 178 187 190 176 163 155 193 252 207 183 174 159 177 183 183 166 148 156 163 171 179 182 187 191 200 216 228 236 235 234 235
233 236 227 213 206 241 266 229 204 196 191 180 175 173 169 175 172 166 179 201 208 192 171 169 173 188 193 173 146 155 163 167 173 178 188 193 197 210 223 229 236 243 239 241
239 234 224 215 207 214 224 216 212 196 194 187 181 180 188 197 182 172 212 231 200 189 170 184 194 197 193 155 150 161 165 172 180 192 202 207 212 217 222 228 236 241 240 242
263 241 232 217 175 156 180 247 240 200 183 180 187 187 176 171 186 212 200 192 184 175 171 197 205 206 178 142 155 167 180 186 192 197 202 212 223 226 229 232 241 247 247 245
239 223 214 185 179 197 208 202 143 120 123 133 173 184 176 174 180 189 170 175 179 152 153 216 219 202 153 140 160 182 199 206 203 199 205 213 225 234 239 243 248 254 258 255
231 219 210 207 202 200 194 172 165 175 158 148 349 37 95 103 127 129 125 123 135 137 117 95 134 137 145 159 173 191 208 225 236 226 222 228 235 237 241 245 249 252 255 256
238 199 171 174 286 198 179 174 177 187 182 179 193 203 160 133 124 125 122 117 115 107 90 84 119 174 178 179 189 206 219 229 230 233 237 237 236 240 243 247 254 256 258 255
Height
1494 1490 1489 1489 1488 1488 1492 1495 1501 1496 1492 1486 1483 1482 1481 1481 1482 1483 1484 1485 1486 1487 1488 1489 1490 1491 1491 1493 1494 1495 1496 1497 1498 1500 1501 1502 1503 1504 1505 1506 1507 1508 1509 1509
1493 1487 1487 1488 1485 1484 1485 1485 1487 1488 1487 1480 1479 1479 1479 1480 1480 1481 1482 1483 1484 1485 1485 1486 1486 1487 1489 1489 1491 1492 1493 1493 1495 1496 1497 1498 1499 1501 1501 1502 1503 1504 1505 1506
1500 1491 1490 1493 1484 1482 1482 1479 1481 1485 1483 1478 1478 1478 1478 1478 1479 1479 1480 1481 1482 1482 1483 1483 1483 1484 1485 1486 1487 1488 1489 1490 1491 1492 1493 1495 1496 1497 1498 1498 1500 1501 1502 1502
1501 1496 1502 1488 1476 1475 1477 1477 1476 1476 1475 1475 1476 1476 1476 1476 1477 1478 1479 1479 1480 1480 1480 1480 1481 1481 1482 1483 1484 1485 1486 1487 1488 1488 1489 1491 1492 1493 1494 1495 1496 1497 1498 1499
1503 1502 1495 1483 1475 1474 1476 1478 1474 1474 1474 1474 1474 1474 1476 1476 1476 1476 1477 1477 1477 1478 1478 1478 1478 1478 1479 1480 1481 1482 1483 1483 1484 1485 1486 1487 1488 1489 1491 1491 1492 1494 1495 1495
1500 1500 1499 1484 1472 1470 1474 1480 1473 1472 1472 1473 1473 1479 1477 1474 1474 1474 1475 1475 1475 1476 1476 1476 1476 1476 1476 1476 1478 1478 1479 1480 1480 1481 1482 1483 1485 1486 1487 1488 1489 1490 1491 1492
1497 1498 1490 1476 1471 1471 1483 1481 1473 1471 1471 1471 1471 1473 1473 1472 1473 1473 1473 1473 1473 1473 1473 1473 1473 1473 1473 1474 1474 1475 1476 1477 1477 1478 1479 1480 1481 1483 1484 1485 1486 1487 1487 1488
1495 1496 1490 1471 1471 1475 1475 1472 1471 1471 1470 1469 1469 1470 1471 1471 1471 1472 1471 1472 1472 1471 1471 1471 1471 1471 1471 1471 1471 1472 1473 1474 1475 1475 1476 1477 1478 1479 1480 1481 1482 1483 1484 1484
1483 1482 1472 1469 1469 1470 1470 1470 1470 1470 1469 1468 1468 1468 1469 1469 1470 1470 1470 1470 1470 1469 1469 1469 1469 1469 1468 1468 1469 1470 1471 1471 1472 1472 1473 1474 1475 1475 1476 1477 1478 1478 1479 1480
1477 1473 1470 1469 1469 1469 1469 1469 1469 1468 1467 1467 1466 1466 1467 1467 1468 1468 1468 1468 1468 1467 1467 1467 1466 1466 1466 1467 1467 1468 1468 1468 1469 1469 1470 1471 1472 1472 1473 1473 1474 1475 1475 1476
1474 1471 1469 1468 1467 1468 1468 1467 1467 1467 1466 1465 1464 1464 1465 1465 1465 1465 1465 1466 1466 1465 1465 1465 1465 1465 1465 1465 1465 1465 1466 1466 1466 1467 1467 1468 1469 1469 1469 1470 1471 1471 1472 1473
1470 1466 1467 1466 1465 1465 1465 1465 1465 1464 1464 1463 1463 1463 1463 1462 1463 1463 1463 1463 1463 1463 1463 1463 1463 1463 1463 1463 1463 1463 1463 1464 1464 1464 1465 1465 1465 1466 1466 1467 1468 1468 1469 1470
1462 1462 1462 1462 1462 1463 1462 1462 1462 1461 1461 1461 1460 1460 1460 1460 1460 1460 1460 1460 1461 1461 1460 1460 1461 1460 1461 1461 1461 1461 1461 1461 1461 1461 1462 1462 1462 1463 1463 1464 1464 1465 1465 1466
1459 1460 1460 1460 1459 1459 1459 1459 1459 1458 1458 1458 1457 1457 1457 1457 1457 1457 1457 1458 1458 1458 1458 1458 1458 1458 1458 1458 1458 1458 1458 1458 1458 1459 1459 1459 1460 1460 1460 1460 1460 1461 1462 1462
1456 1457 1457 1456 1456 1456 1456 1455 1455 1455 1455 1455 1454 1454 1453 1453 1453 1454 1454 1455 1455 1455 1455 1455 1455 1455 1455 1455 1455 1455 1455 1455 1455 1456 1456 1457 1457 1457 1457 1457 1457 1458 1458 1459
1453 1453 1453 1452 1452 1452 1452 1452 1452 1451 1451 1451 1451 1450 1450 1450 1451 1451 1451 1451 1452 1451 1452 1452 1452 1452 1452 1452 1452 1452 1452 1452 1453 1453 1453 1453 1453 1454 1454 1454 1454 1454 1454 1455
1450 1449 1449 1449 1449 1448 1448 1448 1449 1448 1448 1448 1447 1447 1447 1447 1448 1448 1448 1448 1448 1448 1449 1449 1449 1449 1449 1449 1449 1449 1449 1449 1449 1450 1450 1450 1450 1450 1450 1451 1451 1451 1451 1452
1446 1446 1446 1446 1445 1445 1445 1445 1445 1445 1445 1444 1444 1444 1444 1444 1444 1445 1445 1445 1445 1445 1445 1446 1446 1446 1446 1446 1446 1446 1446 1446 1446 1446 1447 1447 1447 1447 1447 1447 1447 1447 1447 1448
1442 1442 1442 1442 1442 1442 1442 1442 1442 1441 1441 1441 1441 1441 1441 1441 1441 1442 1442 1442 1442 1442 1442 1443 1443 1443 1443 1443 1443 1443 1443 1443 1443 1443 1444 1444 1444 1444 1444 1444 1444 1444 1444 1444
1438 1438 1438 1438 1438 1438 1438 1438 1439 1438 1438 1438 1438 1438 1438 1438 1439 1439 1439 1440 1440 1440 1440 1440 1440 1440 1440 1440 1440 1440 1440 1440 1440 1440 1440 1440 1440 1440 1441 1441 1441 1441 1440 1440
1435 1435 1435 1435 1435 1435 1436 1436 1436 1435 1435 1435 1435 1435 1435 1436 1436 1436 1436 1436 1437 1437 1437 1437 1437 1436 1436 1436 1436 1436 1436 1436 1437 1437 1437 1437 1437 1437 1437 1437 1437 1437 1437 1436
1432 1432 1432 1432 1432 1433 1433 1433 1433 1433 1433 1432 1432 1432 1433 1433 1433 1434 1434 1434 1434 1434 1434 1434 1433 1433 1433 1433 1433 1433 1433 1433 1433 1433 1433 1433 1434 1434 1434 1434 1434 1433 1433 1432
1430 1430 1430 1430 1430 1430 1431 1431 1431 1431 1430 1430 1430 1430 1430 1430 1431 1431 1431 1431 1431 1431 1431 1430 1430 1430 1430 1430 1430 1430 1430 1430 1430 1431 1430 1430 1430 1430 1430 1430 1429 1429 1429 1428
1427 1428 1428 1428 1428 1428 1428 1428 1428 1428 1428 1428 1428 1428 1428 1428 1428 1429 1429 1429 1428 1428 1428 1427 1427 1427 1427 1427 1427 1427 1427 1427 1427 1427 1427 1427 1427 1426 1426 1425 1425 1424 1424 1423
1425 1425 1425 1425 1425 1425 1426 1426 1426 1426 1426 1426 1426 1426 1426 1426 1426 1426 1426 1426 1426 1425 1425 1425 1424 1424 1424 1424 1424 1424 1424 1424 1424 1423 1423 1423 1422 1422 1421 1421 1421 1420 1419 1419
1423 1423 1423 1423 1423 1423 1423 1423 1423 1424 1424 1423 1424 1424 1424 1424 1424 1424 1423 1423 1423 1423 1422 1422 1421 1421 1421 1421 1421 1421 1421 1421 1420 1420 1419 1419 1418 1418 1417 1416 1416 1415 1414 1414
1420 1420 1420 1420 1420 1420 1420 1421 1421 1421 1421 1421 1421 1421 1421 1421 1421 1421 1421 1420 1420 1420 1420 1419 1419 1418 1418 1418 1418 1418 1417 1417 1417 1416 1415 1415 1414 1413 1412 1411 1411 1410 1410 1409